カタログに戻る

STARLINK-32711

運用中通信VLEO
NORAD 62435·PAYLOAD·🇺🇸 United States

打ち上げ Dec 29, 2024 から Vandenberg Space Force Base

Loading…

次のパス (今後24時間)

TLE

最新Source: CelesTrak SupGP

元期: Sep 14, 2026, 15:14 UTC

1 62435C 24251D   26257.63520833  .00064850  00000+0  19167-2 0  2571
2 62435  53.1574 176.9058 0001259  92.4900  51.0254 15.34345951    12

AllMySatでSTARLINK-32711をリアルタイム追跡

Download on the App Store